When you browse on this site, cookies collect data to enhance your experience and personalize the content and advertising you see.
Visit our Privacy Policy to learn more. By continuing to use the site, you agree to this use of cookies and data.
  • en France
  • Liste des pays
  • À 7 jours
  • Température de l'eau
  • Carte satellitaire
  • Carte météo
  • Widgets météo
  • user-avatar
    Se connecter

    Météo par heure à Tuokou

    Ce jour, 19 Juillet, Vendredi

    Heure Température Précipitation Vent Pression Humidité
    00:00 +26°C° 0.6 mm 0 m/s 730 mmHg 94%
    01:00 +27°C° 0 mm 1 m/s 730 mmHg 96%
    02:00 +27°C° 0 mm 1 m/s 730 mmHg 96%
    03:00 +27°C° 0 mm 1 m/s 730 mmHg 97%
    04:00 +26°C° 0 mm 1 m/s 730 mmHg 98%
    05:00 +27°C° 0 mm 1 m/s 730 mmHg 97%
    06:00 +27°C° 0 mm 1 m/s 731 mmHg 96%
    07:00 +28°C° 0 mm 1 m/s 731 mmHg 96%
    08:00 +28°C° 0.2 mm 1 m/s 731 mmHg 93%
    09:00 +29°C° 0.2 mm 1 m/s 731 mmHg 90%
    10:00 +30°C° 0.2 mm 1 m/s 731 mmHg 87%
    11:00 +31°C° 0.2 mm 1 m/s 731 mmHg 82%
    12:00 +32°C° 0.2 mm 1 m/s 731 mmHg 77%
    13:00 +34°C° 0.2 mm 1 m/s 730 mmHg 72%
    14:00 +33°C° 1.9 mm 1 m/s 730 mmHg 77%
    15:00 +32°C° 1.9 mm 1 m/s 729 mmHg 82%
    16:00 +32°C° 1.9 mm 1 m/s 729 mmHg 88%
    17:00 +30°C° 0.5 mm 1 m/s 729 mmHg 90%
    18:00 +29°C° 0.5 mm 1 m/s 730 mmHg 92%
    19:00 +28°C° 0.5 mm 1 m/s 730 mmHg 94%
    20:00 +28°C° 0 mm 1 m/s 730 mmHg 94%
    21:00 +26°C° 0 mm 0 m/s 731 mmHg 94%
    22:00 +25°C° 0 mm 0 m/s 731 mmHg 94%
    23:00 +25°C° 0 mm 0 m/s 731 mmHg 94%

    Demain, 20 Juillet, Samedi

    Heure Température Précipitation Vent Pression Humidité
    00:00 +25°C° 0 mm 0 m/s 731 mmHg 94%
    01:00 +25°C° 0 mm 0 m/s 731 mmHg 94%
    02:00 +24°C° 0 mm 0 m/s 731 mmHg 95%
    03:00 +24°C° 0 mm 0 m/s 731 mmHg 95%
    04:00 +24°C° 0 mm 0 m/s 731 mmHg 96%
    05:00 +25°C° 0 mm 0 m/s 731 mmHg 95%
    06:00 +26°C° 0 mm 0 m/s 731 mmHg 93%
    07:00 +26°C° 0 mm 0 m/s 731 mmHg 92%
    08:00 +28°C° 0 mm 0 m/s 732 mmHg 84%
    09:00 +31°C° 0 mm 0 m/s 732 mmHg 75%
    10:00 +33°C° 0 mm 0 m/s 732 mmHg 67%
    11:00 +34°C° 0 mm 0 m/s 731 mmHg 64%
    12:00 +35°C° 0 mm 0 m/s 731 mmHg 61%
    13:00 +35°C° 0 mm 0 m/s 730 mmHg 59%
    14:00 +37°C° 0.7 mm 1 m/s 730 mmHg 63%
    15:00 +36°C° 0.7 mm 1 m/s 729 mmHg 66%
    16:00 +35°C° 0.7 mm 1 m/s 729 mmHg 70%
    17:00 +33°C° 2.3 mm 1 m/s 729 mmHg 77%
    18:00 +32°C° 2.3 mm 1 m/s 729 mmHg 84%
    19:00 +30°C° 2.3 mm 1 m/s 730 mmHg 90%
    20:00 +29°C° 1.2 mm 1 m/s 730 mmHg 92%
    21:00 +29°C° 1.2 mm 1 m/s 730 mmHg 94%
    22:00 +28°C° 1.2 mm 1 m/s 731 mmHg 95%
    23:00 +28°C° 0.1 mm 1 m/s 731 mmHg 95%

    Après-demain, 21 Juillet, Dimanche

    Heure Température Précipitation Vent Pression Humidité
    00:00 +26°C° 0.1 mm 0 m/s 730 mmHg 95%
    01:00 +26°C° 0.1 mm 0 m/s 730 mmHg 95%
    02:00 +26°C° 0.4 mm 0 m/s 730 mmHg 95%
    03:00 +28°C° 0.4 mm 1 m/s 730 mmHg 96%
    04:00 +27°C° 0.4 mm 1 m/s 730 mmHg 96%
    05:00 +28°C° 0.8 mm 1 m/s 730 mmHg 95%
    06:00 +28°C° 0.8 mm 1 m/s 731 mmHg 95%
    07:00 +27°C° 0.8 mm 0 m/s 731 mmHg 94%
    08:00 +30°C° 0.7 mm 1 m/s 731 mmHg 87%
    09:00 +32°C° 0.7 mm 1 m/s 731 mmHg 81%
    10:00 +34°C° 0.7 mm 2 m/s 731 mmHg 74%
    11:00 +35°C° 0.3 mm 2 m/s 731 mmHg 71%
    12:00 +36°C° 0.3 mm 2 m/s 730 mmHg 68%
    13:00 +36°C° 0.3 mm 2 m/s 730 mmHg 66%
    14:00 +36°C° 1.5 mm 2 m/s 730 mmHg 70%
    15:00 +36°C° 1.5 mm 2 m/s 729 mmHg 74%
    16:00 +34°C° 1.5 mm 1 m/s 728 mmHg 78%
    17:00 +34°C° 0.7 mm 2 m/s 729 mmHg 81%
    18:00 +31°C° 0.7 mm 2 m/s 729 mmHg 83%
    19:00 +30°C° 0.7 mm 2 m/s 729 mmHg 86%
    20:00 +29°C° 0 mm 2 m/s 730 mmHg 87%
    21:00 +29°C° 0 mm 2 m/s 730 mmHg 88%
    22:00 +28°C° 0 mm 2 m/s 731 mmHg 88%
    23:00 +28°C° 0 mm 1 m/s 730 mmHg 89%

    22 Juillet, Lundi

    Heure Température Précipitation Vent Pression Humidité
    00:00 +28°C° 0 mm 1 m/s 730 mmHg 90%
    01:00 +28°C° 0 mm 1 m/s 730 mmHg 91%
    02:00 +27°C° 0 mm 1 m/s 730 mmHg 92%
    03:00 +27°C° 0 mm 1 m/s 730 mmHg 93%
    04:00 +27°C° 0 mm 1 m/s 730 mmHg 94%
    05:00 +28°C° 0 mm 1 m/s 730 mmHg 91%
    06:00 +29°C° 0 mm 2 m/s 730 mmHg 87%
    07:00 +30°C° 0 mm 2 m/s 730 mmHg 84%
    08:00 +31°C° 0 mm 3 m/s 730 mmHg 77%
    09:00 +34°C° 0 mm 3 m/s 730 mmHg 70%
    10:00 +36°C° 0 mm 4 m/s 731 mmHg 62%
    11:00 +36°C° 0 mm 3 m/s 730 mmHg 61%
    12:00 +37°C° 0 mm 3 m/s 729 mmHg 59%
    13:00 +37°C° 0 mm 3 m/s 729 mmHg 57%
    14:00 +37°C° 0 mm 3 m/s 728 mmHg 58%
    15:00 +37°C° 0 mm 3 m/s 728 mmHg 59%
    16:00 +37°C° 0 mm 3 m/s 727 mmHg 60%
    17:00 +35°C° 0.4 mm 3 m/s 728 mmHg 67%
    18:00 +33°C° 0.4 mm 3 m/s 728 mmHg 75%
    19:00 +30°C° 0.4 mm 3 m/s 729 mmHg 82%
    20:00 +30°C° 0.1 mm 2 m/s 729 mmHg 83%
    21:00 +29°C° 0.1 mm 2 m/s 729 mmHg 84%
    22:00 +29°C° 0.1 mm 2 m/s 730 mmHg 85%
    23:00 +29°C° 0 mm 2 m/s 729 mmHg 86%

    23 Juillet, Mardi

    Heure Température Précipitation Vent Pression Humidité
    00:00 +28°C° 0 mm 2 m/s 729 mmHg 86%
    01:00 +28°C° 0 mm 1 m/s 729 mmHg 87%
    02:00 +28°C° 0 mm 1 m/s 729 mmHg 89%
    03:00 +27°C° 0 mm 1 m/s 729 mmHg 90%
    04:00 +27°C° 0 mm 1 m/s 729 mmHg 91%
    05:00 +28°C° 0 mm 1 m/s 729 mmHg 89%
    06:00 +29°C° 0 mm 2 m/s 729 mmHg 86%
    07:00 +30°C° 0 mm 2 m/s 730 mmHg 83%
    08:00 +31°C° 0 mm 2 m/s 730 mmHg 77%
    09:00 +34°C° 0 mm 3 m/s 730 mmHg 70%
    10:00 +35°C° 0 mm 3 m/s 730 mmHg 63%
    11:00 +36°C° 0 mm 3 m/s 729 mmHg 61%
    12:00 +37°C° 0 mm 3 m/s 729 mmHg 58%
    13:00 +38°C° 0 mm 3 m/s 728 mmHg 56%
    14:00 +38°C° 0.1 mm 3 m/s 728 mmHg 57%
    15:00 +38°C° 0.1 mm 3 m/s 727 mmHg 58%
    16:00 +38°C° 0.1 mm 3 m/s 727 mmHg 59%
    17:00 +36°C° 0.2 mm 3 m/s 727 mmHg 67%
    18:00 +34°C° 0.2 mm 2 m/s 728 mmHg 74%
    19:00 +31°C° 0.2 mm 2 m/s 728 mmHg 82%
    20:00 +30°C° 0 mm 2 m/s 728 mmHg 83%
    21:00 +30°C° 0 mm 2 m/s 729 mmHg 85%
    22:00 +29°C° 0 mm 2 m/s 729 mmHg 86%
    23:00 +29°C° 0 mm 2 m/s 729 mmHg 87%

    24 Juillet, Mercredi

    Heure Température Précipitation Vent Pression Humidité
    00:00 +28°C° 0 mm 2 m/s 729 mmHg 87%
    01:00 +28°C° 0 mm 1 m/s 729 mmHg 88%
    02:00 +28°C° 0 mm 1 m/s 729 mmHg 90%
    03:00 +27°C° 0 mm 1 m/s 729 mmHg 91%
    04:00 +27°C° 0 mm 1 m/s 729 mmHg 93%
    05:00 +28°C° 0 mm 1 m/s 729 mmHg 90%
    06:00 +29°C° 0 mm 1 m/s 730 mmHg 87%
    07:00 +30°C° 0 mm 2 m/s 730 mmHg 84%
    08:00 +31°C° 0 mm 2 m/s 730 mmHg 77%
    09:00 +34°C° 0 mm 3 m/s 730 mmHg 69%
    10:00 +35°C° 0 mm 3 m/s 730 mmHg 62%
    11:00 +36°C° 0 mm 3 m/s 730 mmHg 60%
    12:00 +37°C° 0 mm 3 m/s 729 mmHg 57%
    13:00 +38°C° 0 mm 3 m/s 729 mmHg 54%
    14:00 +38°C° 0 mm 3 m/s 729 mmHg 55%
    15:00 +38°C° 0 mm 3 m/s 728 mmHg 56%
    16:00 +38°C° 0 mm 3 m/s 728 mmHg 58%
    17:00 +36°C° 0 mm 3 m/s 728 mmHg 65%
    18:00 +34°C° 0 mm 2 m/s 729 mmHg 72%
    19:00 +31°C° 0 mm 2 m/s 729 mmHg 78%
    20:00 +30°C° 0 mm 2 m/s 730 mmHg 80%
    21:00 +29°C° 0 mm 2 m/s 730 mmHg 82%
    22:00 +29°C° 0 mm 2 m/s 731 mmHg 84%
    23:00 +29°C° 0 mm 1 m/s 731 mmHg 85%
    Voir plus